Flag for Paraguay Weather past 2 weeks in Asuncion, Paraguay

Now
70 °F

Passing clouds.


Feels Like: 70 °F
Forecast: 69 / 80 °F
Wind: 13 mph from Northeast

Location: Asuncion / Aeropuerto

Current Time: Jul 30, 2014 at 5:20:26 AM

Latest Report: Jul 30, 2014 at 5:00 AM


Visibility: N/A

Pressure: 30.01 "Hg

Humidity: 78%

Dew point: 63 °F

Location of AsuncionLocation

Historic Weather in Asuncion — Graph

°F

Asuncion temperature yesterday

Maximum temperature yesterday: 79 °F (at 3:00 PM)
Minimum temperature yesterday: 66 °F (at 12:00 AM)
Average temperature yesterday: 71 °F

Past Weeks' High & Low Weather Summary

 TemperatureHumidityPressure
High84 °F (Jul 16, 3:00 PM)100% (Jul 19, 5:00 AM)30.36 "Hg (Jul 19, 5:00 AM)
Low39 °F (Jul 27, 2:00 AM)33% (Jul 18, 3:00 PM)29.68 "Hg (Jul 23, 12:00 PM)
Average64 °F74%30.07 "Hg
* Reported Jul 15 4:00 AM — Jul 30 4:00 AM, Asuncion, Weather by CustomWeather, © 2014

Note: Actual official high and low records may vary slightly from our data, if they occured in-between our weather recording intervals... More about our weather records

Advertising

Asuncion weather history for previous 24 hours

 ConditionsComfort  
Time TempWeatherWind HumidityBarometerVisibility
4:00 AM
Jul 30
72 °FPassing clouds.10 mph73%30.04 "HgN/A
3:00 AM72 °FPartly cloudy.10 mph73%30.04 "HgN/A
1:00 AM72 °FPartly cloudy.10 mph73%30.07 "HgN/A
12:00 AM72 °FPassing clouds.12 mph73%30.07 "HgN/A
11:00 PM
Jul 29
72 °FPassing clouds.9 mph73%30.09 "HgN/A
10:00 PM73 °FPassing clouds.10 mph69%30.07 "HgN/A
9:00 PM73 °FClear.6 mph69%30.07 "Hg10 mi
8:00 PM73 °FClear.7 mph69%30.07 "Hg10 mi
7:00 PM73 °FPassing clouds.7 mph69%30.04 "HgN/A
6:00 PM73 °FPassing clouds.7 mph74%30.04 "HgN/A
5:00 PM77 °FPassing clouds.8 mph65%30.04 "HgN/A
4:00 PM79 °FPartly sunny.9 mph61%30.04 "HgN/A
3:00 PM79 °FPartly sunny.14 mph58%30.04 "HgN/A
2:00 PM77 °FScattered clouds.15 mph61%30.04 "HgN/A
1:00 PM77 °FPartly sunny.15 mph61%30.07 "HgN/A
12:00 PM77 °FPassing clouds.15 mph61%30.09 "HgN/A
11:00 AM75 °FScattered clouds.13 mph65%30.12 "HgN/A
10:00 AM72 °FScattered clouds.15 mph69%30.15 "HgN/A
9:30 AM72 °FScattered clouds.16 mph69%30.15 "HgN/A
9:00 AM70 °FPartly sunny.13 mph73%30.15 "HgN/A
8:30 AM68 °FBroken clouds.12 mph78%30.15 "HgN/A
8:00 AM68 °FPartly sunny.12 mph78%30.12 "HgN/A
7:30 AM68 °FPartly sunny.12 mph78%30.12 "HgN/A
7:00 AM66 °FMild.12 mph83%30.09 "HgN/A
6:00 AM66 °FPartly sunny.9 mph83%30.09 "HgN/A
5:00 AM66 °FPassing clouds.9 mph83%30.09 "HgN/A
Weather by CustomWeather, © 2014

See weather overviewHow to use our weather pages